COSMOS 1275 DEB, 42144

Orbit data source: Space-Track

COSMOS 1275 DEB, 42144 is space debris in LEO originally from a launch on Thu, 04 Jun 1981 UTC launched from the Plesetsk Missile And Space Complex (PKMTR). Debris objects in space refer to the collection of defunct objects orbiting the Earth. Examples of debris include non-operational satellites, rocket bodies, and fragments generated from explosions, collisions, or faulty payload assembly.

Loading next visibility...
Identifier
42144, 1981-053RG
Orbit
LEO
Country
Flag of CISCIS
Related business
Manufacturer
Unknown
Mission
Spacecraft
Bus & Motor
Unknown
Mass
Unknown
Launch date (UTC)
1981-06-04 (45 years ago)
Launch vehicle
Unknown
Launch site
Plesetsk Missile And Space Complex (PKMTR)
Object type
Payload
Rocket body
Debris
Shape & HBR
Unknown shape, 0.1 m
Radar Cross Section
Medium (>0.1 m² and <1 m²)

Expand to show TLE details & history
Last TLE update: 2 weeks ago

TLE from 2 weeks ago
0 COSMOS 1275 DEB
1 42144U 81053RG  26160.14566146  .00000545  00000-0  42959-3 0  9996
2 42144  82.8066 310.5901 0059440  99.8728  76.3873 13.89093725634476
Epoch: 2026-06-09T03:29Z
TLE epoch observation values (Epoch: 2026-06-09T03:29:45.150Z)
Latitude
2.95498°
Longitude
-179.74172°
Altitude
924.406 km
Speed
7.395 km/s
True Right ascension
08h 40m 52s
True Declination
2° 56' 16"
Sunlit
Object was in daylight at epoch
Visualization orbit readout
Latitude
Unknown
Longitude
Unknown
Altitude
Unknown
Speed
Unknown
Apparent Right ascension
Unknown
Apparent Declination
Unknown
Sunlit
N/A
Visualization observer readout
Local Sidereal Time
21:51:58
Azimuth
Unknown
Elevation
Unknown
Doppler factor
Unknown
Orbital elements
Apogee altitude
972.376 km
Perigee altitude
885.51 km
Semi-major axis
7,307.08 km
Eccentricity
0.00594
Inclination
82.8066°
RAAN
310.5901°
Arg. of periapsis
99.8728°
True anomaly
77.05044°
Mean anomaly
76.3873°
Eccentric anomaly
76.71876°
Mean motion
3.47478 °/min
Orbital period
103.6 mins
BSTAR
0.00042959
Loading maneuver chart data...
Computing Atmospheric mass density...

Documentation

Showing up to 5 results
|